Location: ???? ?????
(30.0052°N, 31.2891°E)
Time: 21:55:48
(UTC+00:00)

FENGYUN 3A - Pass Details

Date: 26 May 2022
Orbit: 823 x 835 km, 98.5° (Epoch: 05 July)

Event Time Altitude Azimuth Distance (km) Brightness Sun altitude
Rises 01:32:33 0° 6° (N) 3,362 7.5 -16.3°
Reaches altitude 10° 01:34:57 10° 2° (N) 2,427 6.6 -15.9°
Maximum altitude 01:40:10 54° 286° (WNW) 992 3.8 -15.0°
Enters shadow 01:43:54 19° 215° (SW) 1,870 4.9 -14.4°
